User: anonymous   Login
Location: Unspecified
(0.0000°N, 0.0000°E)
Time: 11:02:50
(UTC+00:00)
Language:

Hubble Space Telescope - Orbit

View from above orbital plane
View from above orbital plane
View from above satellite
View from above satellite

Ground track
Ground track

The orbit data is extracted from the following two-line orbital elements,

1 20580U 90037B   19018.57921983 +.00000369 +00000-0 +11526-4 0  9994
2 20580 028.4691 131.1126 0002549 302.0998 145.0154 15.09159690377959
Epoch (UTC): 18 January 2019 13:54:04
Eccentricity: 0.0002549
inclination: 28.4691°
perigee height: 537 km
apogee height: 540 km
right ascension of ascending node: 131.1126°
argument of perigee: 302.0998°
revolutions per day: 15.09159690
mean anomaly at epoch: 145.0154°
orbit number at epoch: 37795

The dashed part of the orbit path shows where the satellite is in the earth's shadow,  

DLR